• Join FlightAware (Why Join?)
  • Login
  • US Flag GB Flag 
23:23 EDT


 

Airport Tracker/Info


-or-


 

Live Flight TrackerFlight Track Log ✈ SWA407 ✈ 10-Apr-2013 ✈ KTPA - KBUF

Flight Track Log - Related Links

Times and Time Zones

All times are in EDT time to prevent confusion due to time zone crossing. See the SWA407 flight status page for this flight to view local times or setup timezone preferences in your user account.

Time Position Orientation Groundspeed Altitude Reporting Facility
EDT Latitude Longitude Course Direction KTS MPH feet Rate Location/Type
15:44 27.9667 -82.5500 196° South 173 199 800  Level Tampa TRACON
15:45 27.9167 -82.5667 196° South 219 252 2,500 2,460 Climbing Tampa TRACON
15:47 27.9911 -82.6342 321° Northwest 271 312 8,900 2,640 Climbing Jacksonville Center
15:48 28.0786 -82.6267 North 290 334 11,200 2,040 Climbing Jacksonville Center
15:49 28.1811 -82.6453 351° North 330 380 13,000 900 Climbing Jacksonville Center
15:50 28.2833 -82.6806 343° North 361 415 13,000 780 Level Jacksonville Center
15:51 28.3836 -82.7133 344° North 371 427 14,600 2,040 Climbing Jacksonville Center
15:52 28.4878 -82.7156 359° North 371 427 17,100 2,400 Climbing Jacksonville Center
15:53 28.5983 -82.7106 North 378 435 19,400 1,620 Climbing Jacksonville Center
15:54 28.7028 -82.7056 North 402 463 20,400 900 Climbing Jacksonville Center
15:55 28.8197 -82.7053 360° North 409 471 21,300 960 Climbing Jacksonville Center
15:56 28.9367 -82.7028 North 414 476 22,400 1,020 Climbing Jacksonville Center
15:57 29.0575 -82.7003 North 419 482 23,400 960 Climbing Jacksonville Center
15:58 29.1767 -82.6975 North 424 488 24,400 960 Climbing Jacksonville Center
15:59 29.2978 -82.6950 North 424 488 25,400 960 Climbing Jacksonville Center
16:00 29.4186 -82.6922 North 424 488 26,400 1,200 Climbing Jacksonville Center
16:01 29.5481 -82.6944 359° North 439 505 27,900 1,440 Climbing Jacksonville Center
16:02 29.6733 -82.6917 North 439 505 29,300 1,500 Climbing Jacksonville Center
16:03 29.8028 -82.6939 359° North 444 511 30,900 1,440 Climbing Jacksonville Center
16:04 29.9261 -82.6911 North 444 511 32,200 1,440 Climbing Jacksonville Center
16:05 30.0681 -82.6886 North 449 517 33,800 1,380 Climbing Jacksonville Center
16:06 30.1933 -82.6858 North 449 517 35,000 600 Climbing Jacksonville Center
16:07 30.3164 -82.6856 360° North 449 517 35,000  Level Jacksonville Center
16:08 30.4375 -82.6853 360° North 438 504 35,000  Level Jacksonville Center
16:09 30.5356 -82.6803 North 438 504 35,000  Level Jacksonville Center
16:10 30.6714 -82.6608 North 438 504 35,000  Level Jacksonville Center
16:11 30.7925 -82.6386 North 444 511 35,000  Level Jacksonville Center
16:12 30.9156 -82.6167 North 444 511 35,000  Level Jacksonville Center
16:13 31.0386 -82.5967 North 444 511 35,000  Level Jacksonville Center
16:14 31.1597 -82.5744 North 449 517 35,000  Level Jacksonville Center
16:15 31.2828 -82.5522 North 444 511 35,000  Level Jacksonville Center
16:16 31.4061 -82.5300 North 444 511 35,000  Level Jacksonville Center
16:17 31.5269 -82.5100 North 444 511 35,000  Level Jacksonville Center
16:18 31.6503 -82.4900 North 444 511 35,000  Level Jacksonville Center
16:21 31.9450 -82.4456 North 452 520 35,000  Level Atlanta Center
16:22 32.0678 -82.4261 North 453 521 35,000  Level Atlanta Center
16:23 32.1908 -82.4044 North 448 516 35,000  Level Atlanta Center
16:24 32.3075 -82.3875 North 437 503 35,000  Level Atlanta Center
16:25 32.4428 -82.3628 North 438 504 35,000  Level Atlanta Center
16:26 32.5656 -82.3456 North 438 504 35,000  Level Atlanta Center
16:27 32.6864 -82.3286 North 445 512 35,000  Level Atlanta Center
16:28 32.8114 -82.3064 North 445 512 35,000  Level Atlanta Center
16:29 32.9322 -82.2867 North 445 512 35,000  Level Atlanta Center
16:30 33.0550 -82.2667 North 445 512 35,000  Level Atlanta Center
16:31 33.1781 -82.2469 North 445 512 35,000 480 Level Atlanta Center
16:32 33.3008 -82.2294 North 445 512 36,000 960 Climbing Atlanta Center
16:33 33.4217 -82.2069 North 445 512 37,000 480 Climbing Atlanta Center
16:34 33.5444 -82.1869 North 445 512 37,000  Level Atlanta Center
16:35 33.6694 -82.1642 North 445 512 37,000  Level Atlanta Center
16:36 33.7817 -82.1467 North 450 518 37,000  Level Atlanta Center
16:37 33.9067 -82.1264 North 450 518 37,000  Level Atlanta Center
16:38 34.0294 -82.1064 North 445 512 37,000  Level Atlanta Center
16:39 34.1544 -82.0858 North 445 512 37,000  Level Atlanta Center
16:40 34.2772 -82.0603 10° North 445 512 37,000  Level Atlanta Center
16:41 34.3978 -82.0425 North 445 512 37,000  Level Atlanta Center
16:42 34.5228 -82.0194 North 445 512 37,000  Level Atlanta Center
16:43 34.6433 -81.9986 North 445 512 37,000  Level Atlanta Center
16:44 34.7661 -81.9756 North 440 506 37,000  Level Atlanta Center
16:45 34.8889 -81.9547 North 445 512 37,000  Level Atlanta Center
16:46 35.0222 -81.9336 North 445 512 37,000  Level Atlanta Center
16:47 35.1325 -81.9283 North 445 512 37,000  Level Atlanta Center
16:48 35.2578 -81.9200 North 439 505 37,000  Level Atlanta Center
16:49 35.3808 -81.9169 North 439 505 37,000  Level Atlanta Center
16:50 35.5058 -81.9111 North 444 511 37,000  Level Atlanta Center
16:51 35.6433 -81.9025 North 444 511 37,000  Level Atlanta Center
16:52 35.7683 -81.8967 North 438 504 37,000  Level Atlanta Center
16:53 35.8933 -81.8906 North 443 510 37,000  Level Atlanta Center
16:54 36.0228 -81.8847 North 448 516 37,000  Level Atlanta Center
16:55 36.1436 -81.8789 North 448 516 37,000  Level Atlanta Center
16:56 36.2706 -81.8731 North 448 516 37,000  Level Atlanta Center
16:57 36.3936 -81.8644 North 443 510 37,000  Level Atlanta Center
16:58 36.5042 -81.8614 North 443 510 37,000  Level Atlanta Center
16:59 36.6289 -81.8528 North 442 509 37,000  Level Atlanta Center
17:00 36.7539 -81.8469 North 442 509 37,000  Level Atlanta Center
17:01 36.9011 -81.8400 North 447 514 37,000  Level Indianapolis Center
17:02 37.0478 -81.8328 North 451 519 37,000  Level Indianapolis Center
17:03 37.1719 -81.8272 North 448 516 37,000  Level Indianapolis Center
17:04 37.2972 -81.8222 North 449 517 37,000  Level Indianapolis Center
17:05 37.4219 -81.8164 North 448 516 37,000  Level Indianapolis Center
17:06 37.5456 -81.8103 North 446 513 37,000  Level Indianapolis Center
17:07 37.6931 -81.8028 North 452 520 37,000  Level Indianapolis Center
17:08 37.8186 -81.7969 North 450 518 37,000  Level Indianapolis Center
17:09 37.9314 -81.7911 North 452 520 37,000  Level Indianapolis Center
17:10 38.0569 -81.7847 North 451 519 37,000  Level Indianapolis Center
17:11 38.2086 -81.7772 North 452 520 37,000  Level Indianapolis Center
17:12 38.3333 -81.7686 North 448 516 37,000  Level Indianapolis Center
17:13 38.4450 -81.6889 29° Northeast 458 527 37,000  Level Indianapolis Center
17:14 38.5506 -81.5975 34° Northeast 462 532 37,000  Level Indianapolis Center
17:15 38.6647 -81.4992 34° Northeast 460 529 37,000  Level Indianapolis Center
17:16 38.7703 -81.4075 34° Northeast 459 528 37,000  Level Indianapolis Center
17:17 38.8828 -81.3086 34° Northeast 467 537 37,000  Level Indianapolis Center
17:19 38.9856 -81.2197 34° Northeast 450 518 37,000  Level Indianapolis Center
17:20 39.0892 -81.1294 34° Northeast 451 519 37,000  Level Indianapolis Center
17:21 39.1922 -81.0367 35° Northeast 451 519 37,000  Level Indianapolis Center
17:22 39.2950 -80.9464 34° Northeast 448 516 37,000  Level Indianapolis Center
17:23 39.4169 -80.8389 34° Northeast 443 510 37,000 -420 Level Indianapolis Center
17:24 39.6106 -80.7689 16° North 433 498 35,900 -780 Descending Cleveland Center
17:25 39.7294 -80.7314 14° North 433 498 35,000 -660 Descending Cleveland Center
17:26 39.8503 -80.6939 13° North 433 498 34,600 -600 Descending Cleveland Center
17:27 39.9733 -80.6536 14° North 445 512 33,900 -900 Descending Cleveland Center
17:28 40.0942 -80.6131 14° North 445 512 32,900 -900 Descending Cleveland Center
17:29 40.2047 -80.5750 15° North 445 512 32,200 -900 Descending Cleveland Center
17:30 40.3214 -80.5122 22° Northeast 456 525 31,200 -600 Descending Cleveland Center
17:31 40.4381 -80.4467 23° Northeast 456 525 31,000 -120 Descending Cleveland Center
17:32 40.5528 -80.3836 23° Northeast 450 518 31,000  Level Cleveland Center
17:33 40.6672 -80.3231 22° Northeast 445 512 31,000  Level Cleveland Center
17:34 40.7797 -80.2594 23° Northeast 445 512 31,000 -480 Level Cleveland Center
17:35 40.8983 -80.1903 24° Northeast 440 506 30,100 -960 Descending Cleveland Center
17:36 41.0106 -80.1264 23° Northeast 440 506 29,100 -1,020 Descending Cleveland Center
17:37 41.1208 -80.0622 24° Northeast 434 499 28,100 -1,080 Descending Cleveland Center
17:38 41.2331 -80.0006 22° Northeast 434 499 27,000 -1,020 Descending Cleveland Center
17:39 41.3411 -79.9497 19° North 427 491 26,100 -960 Descending Cleveland Center
17:40 41.4494 -79.9128 14° North 416 479 25,100 -1,020 Descending Cleveland Center
17:41 41.5597 -79.8783 13° North 405 466 24,100 -720 Descending Cleveland Center
17:42 41.6825 -79.8408 13° North 405 466 23,700 -780 Descending Cleveland Center
17:43 41.7906 -79.7811 22° Northeast 405 466 22,600 -900 Descending Cleveland Center
17:44 41.8775 -79.7131 30° Northeast 405 466 22,000 -300 Descending Cleveland Center
17:45 41.9811 -79.6419 27° Northeast 405 466 22,000  Level Cleveland Center
17:46 42.0847 -79.5703 27° Northeast 405 466 22,000  Level Cleveland Center
17:47 42.1883 -79.4903 30° Northeast 410 472 22,000 -420 Level Cleveland Center
17:48 42.2939 -79.4183 27° Northeast 415 478 21,200 -1,920 Descending Cleveland Center
17:49 42.3994 -79.3433 28° Northeast 415 478 18,200 -2,940 Descending Cleveland Center
17:50 42.5028 -79.2653 29° Northeast 415 478 15,400 -1,860 Descending Cleveland Center
17:51 42.5936 -79.1900 31° Northeast 402 463 14,500 -900 Descending Cleveland Center
17:52 42.6747 -79.1853 North 327 376 13,700 -1,200 Descending Cleveland Center
17:53 42.7414 -79.1811 North 269 310 12,200 -1,500 Descending Cleveland Center
17:54 42.7997 -79.1683 North 240 276 10,700 -1,500 Descending Cleveland Center
17:55 42.7881 -79.0725 99° East 148 170 9,300 -1,500 Descending Cleveland Center
17:56 42.7600 -79.0025 119° Southeast 166 191 7,700 -1,680 Descending Cleveland Center
17:57 42.7300 -78.9381 122° Southeast 180 207 6,000 1,620 Descending Cleveland Center
17:58 42.7164 -78.8764 107° East 186 214 11,000 4,980 Climbing Cleveland Center